Theta_e
295 297 306 308 302 296 297 299 305 328 335 336 333 332 331 332 333 333 332 331 332 331 331 330 329 329 328 328 328 327 325 324 324 322 322 323 325 325 326 327 326 325 324
304 307 306 306 306 307 306 301 305 321 334 335 335 335 333 334 334 333 332 331 331 331 330 329 328 328 328 327 327 325 323 324 324 319 317 312 315 321 324 325 325 324 323
301 303 304 303 304 304 304 307 309 316 332 334 335 328 331 328 330 331 331 331 331 331 330 328 328 328 328 325 325 325 323 321 323 321 318 310 310 313 317 322 323 322 321
300 300 300 301 301 303 304 305 308 311 328 333 332 330 328 326 328 330 331 332 332 330 330 328 328 328 327 325 324 325 324 323 320 321 321 318 315 310 308 316 318 320 320
296 296 297 298 300 301 303 304 305 309 318 332 332 330 327 328 327 330 329 329 329 329 329 327 326 327 326 325 325 324 323 324 322 321 319 316 315 314 309 309 312 315 317
293 294 296 296 297 298 299 302 304 306 313 331 331 329 327 326 325 327 326 327 327 326 325 325 325 325 326 324 324 324 323 322 322 321 320 319 314 311 311 309 312 313 313
291 291 291 292 294 295 296 299 301 303 308 328 331 330 327 326 325 326 326 325 325 324 324 324 324 325 326 325 324 323 322 322 320 321 320 320 319 316 315 314 312 312 313
290 290 291 291 292 293 295 296 299 301 306 327 331 332 329 324 324 325 325 324 324 324 324 324 325 325 324 323 323 321 321 322 321 321 321 320 320 317 316 314 313 309 310
289 289 289 290 290 291 292 295 297 300 307 330 329 327 324 322 321 322 323 322 322 320 321 321 322 322 322 321 322 321 321 321 321 322 322 321 321 319 318 318 317 313 308
287 287 288 288 290 290 292 294 297 299 304 313 326 324 324 323 321 321 320 321 320 320 320 318 318 318 319 321 321 320 321 321 322 322 321 321 321 318 318 317 317 316 312
286 286 286 288 289 290 290 291 295 298 302 305 317 322 321 321 321 320 320 320 320 320 319 319 318 317 316 316 315 315 315 316 318 320 320 320 321 318 317 317 317 315 313
286 285 286 286 287 287 288 289 292 295 297 302 310 320 320 320 319 319 319 319 318 318 317 316 315 315 315 315 315 312 316 316 316 317 318 318 319 318 318 316 316 315 315
285 284 284 285 285 286 287 288 290 293 295 298 308 317 318 319 318 319 318 319 318 317 317 316 315 315 315 315 314 314 315 316 316 317 317 317 319 318 317 316 315 315 314
283 283 283 284 284 285 286 287 288 291 294 294 294 297 306 318 317 319 318 318 318 316 315 316 315 315 314 314 315 315 314 313 310 308 310 314 318 319 318 316 316 315 313
282 282 282 283 283 284 285 286 287 289 291 291 291 290 293 298 306 310 315 315 313 312 309 305 302 301 300 297 300 309 313 309 302 299 297 294 297 302 308 316 316 315 313
281 281 282 282 282 282 283 284 285 286 289 289 289 290 288 290 291 295 297 297 295 295 295 293 293 292 292 290 293 300 303 301 298 295 293 292 291 290 290 290 289 297 313
280 281 281 281 282 282 283 282 283 285 285 286 287 288 288 286 286 288 290 289 289 289 288 288 288 288 289 290 292 292 293 292 291 290 290 290 290 289 289 288 288 287 287
279 280 281 281 281 282 281 282 283 283 283 283 285 286 287 286 285 285 285 285 286 285 286 286 286 287 288 288 289 289 289 287 287 287 287 287 287 287 287 286 284 284 284
279 280 281 281 281 280 281 280 280 281 281 280 281 283 284 284 284 283 283 283 283 283 284 284 285 285 286 287 288 287 286 285 285 286 286 285 285 287 287 283 281 280 280
280 280 281 281 280 280 280 279 278 278 278 279 280 282 282 282 282 282 282 283 283 283 283 283 284 285 284 287 287 286 285 283 283 284 284 286 285 285 284 282 280 277 277
280 280 280 279 281 280 280 277 277 276 278 279 280 280 281 281 281 281 281 281 281 281 281 281 282 282 283 284 285 285 283 282 282 282 282 283 284 284 283 281 279 277 278
278 279 278 278 280 281 279 277 276 278 278 278 278 278 279 279 280 280 280 280 281 280 280 280 280 280 281 282 283 282 282 281 279 278 280 281 282 282 281 280 280 279 277
277 278 277 277 278 279 280 277 277 277 277 276 277 277 278 278 278 277 278 278 279 279 279 279 279 279 280 280 281 281 280 279 277 277 279 279 279 279 278 278 277 276 275
275 276 276 275 276 277 278 279 279 278 276 275 275 276 278 277 277 278 278 278 277 277 278 279 279 279 279 279 278 278 277 277 276 276 275 276 275 274 274 274 275 274 274
275 275 275 275 274 275 276 276 278 280 277 276 276 275 275 276 278 278 279 278 280 280 278 279 279 278 278 279 280 278 276 276 276 275 274 273 273 272 272 272 272 272 272
274 274 274 274 273 274 274 275 277 278 277 276 274 273 273 273 273 274 274 279 281 281 281 281 280 280 281 281 280 279 278 277 276 273 271 270 270 270 270 270 269 270 270
Wind_Speed
10 9 9 11 14 10 8 10 12 15 11 11 11 11 12 11 10 9 12 13 11 11 11 8 9 9 9 9 9 7 8 5 7 3 3 4 5 6 6 6 6 7 7
9 11 13 13 10 9 12 11 9 12 13 11 13 10 11 9 10 8 9 13 14 13 11 11 9 10 8 9 10 8 6 4 8 4 2 2 1 3 7 6 8 9 8
10 12 14 15 12 9 10 11 11 12 13 16 10 2 5 4 4 7 9 10 14 14 13 12 9 9 8 8 9 9 8 7 6 7 4 3 3 2 1 8 9 10 8
9 9 13 14 14 13 9 10 12 11 14 15 14 17 13 11 10 11 10 11 14 14 13 12 11 11 8 9 9 9 9 7 8 6 3 2 5 4 2 1 2 9 10
11 13 14 16 16 14 13 11 13 13 14 16 17 17 16 12 6 8 14 12 11 13 12 12 11 10 8 8 10 10 10 8 7 7 4 2 1 1 3 3 3 1 5
12 12 12 14 16 15 14 13 15 15 15 16 18 19 20 14 10 11 11 10 10 9 12 12 10 9 9 9 8 9 10 8 6 6 5 7 5 4 3 2 5 7 4
12 14 17 18 18 20 18 14 15 18 16 16 17 17 14 13 15 14 12 12 10 9 12 12 10 9 9 9 9 8 8 9 9 9 7 6 8 2 4 3 4 4 2
10 14 15 16 17 18 19 18 20 19 18 14 15 13 12 7 8 11 8 8 9 10 13 11 11 9 9 8 7 5 7 9 10 12 9 7 8 7 5 5 7 3 2
14 15 15 15 18 18 19 17 18 17 18 11 10 9 8 10 10 13 11 9 9 7 10 11 10 9 8 7 6 6 9 8 9 10 10 9 8 7 8 8 9 7 7
14 16 15 17 16 16 17 18 18 20 18 14 4 6 8 8 7 8 10 10 8 10 11 10 9 8 6 7 8 5 5 7 6 7 9 8 7 9 9 8 9 7 8
14 15 16 16 16 16 16 16 15 16 15 14 9 8 7 8 8 8 7 9 9 9 9 8 9 8 7 5 4 4 5 5 5 6 7 11 12 10 10 9 9 8 6
13 14 16 16 17 17 17 16 17 17 16 15 11 2 9 7 7 8 8 9 10 9 10 9 9 8 7 6 6 5 4 5 9 11 12 12 8 12 15 12 13 11 8
15 14 15 16 16 17 16 17 17 16 15 17 14 2 3 10 7 9 10 8 10 10 10 10 9 7 6 6 5 5 4 6 8 7 8 8 9 12 11 13 13 11 9
15 14 14 15 15 16 16 16 16 15 14 13 14 15 14 1 6 7 12 10 10 11 8 8 8 6 5 3 3 4 3 4 1 4 5 5 10 16 18 15 14 11 10
16 15 16 15 16 16 16 16 16 15 14 13 15 15 15 14 10 6 11 9 10 9 9 10 8 6 6 3 0 2 4 3 4 6 7 11 12 3 5 7 10 12 11
15 15 15 17 16 17 16 16 17 16 14 14 14 14 17 16 15 12 12 13 13 12 11 10 9 8 6 9 4 3 8 7 6 7 8 8 12 16 21 24 28 12 13
12 14 15 14 15 15 14 15 15 15 14 14 14 15 15 17 16 14 14 14 14 14 13 12 11 9 8 13 9 15 9 9 8 8 7 8 8 10 9 16 22 24 24
12 12 11 13 14 14 14 13 14 14 15 16 17 16 12 14 16 17 14 15 14 14 13 13 11 10 10 15 13 15 12 12 11 10 10 9 10 10 11 13 17 18 19
8 8 9 10 11 14 14 13 15 15 16 17 17 17 15 14 17 15 13 14 15 15 15 12 14 13 12 17 13 11 12 13 13 12 11 10 11 15 16 15 16 15 13
8 10 10 10 13 14 12 13 14 16 17 16 14 14 14 16 16 16 13 11 14 15 11 14 14 21 15 20 15 12 8 13 10 12 14 21 16 21 20 13 12 15 10
10 9 10 12 12 12 12 14 13 15 12 12 13 14 14 15 15 14 14 13 13 14 14 14 14 16 17 19 23 23 10 9 10 11 10 11 25 26 26 22 13 12 10
11 11 9 11 12 12 12 13 14 12 12 12 14 14 15 12 11 14 13 13 12 14 12 12 12 11 15 23 26 27 25 18 13 12 10 14 26 27 26 19 23 21 13
8 9 9 10 11 13 11 12 12 10 10 12 14 15 14 13 13 13 12 10 11 11 10 10 9 10 8 9 23 25 24 22 14 10 19 23 24 24 20 25 22 13 9
9 8 9 11 12 12 12 11 10 8 10 12 13 12 13 13 12 10 10 10 9 9 9 9 9 8 8 8 8 8 9 13 12 12 11 13 14 16 14 12 13 10 9
8 9 10 10 12 11 12 11 11 9 10 10 10 10 9 10 11 13 11 9 12 12 9 9 8 7 9 10 14 11 7 7 8 8 8 8 8 9 9 9 9 8 8
8 9 10 10 10 10 10 11 11 9 8 9 8 7 6 7 8 7 9 25 26 25 25 23 14 9 18 18 18 18 17 16 12 8 8 8 8 8 8 7 8 8 9
Wind_Direction
317 340 4 5 349 313 264 230 227 219 200 197 193 198 202 195 193 195 185 172 179 182 181 186 174 177 184 194 183 184 183 176 168 152 173 176 180 179 198 197 195 190 190
352 350 349 350 359 341 345 316 258 226 208 201 202 199 197 209 198 191 198 179 180 179 183 179 179 178 178 180 182 185 184 182 174 174 120 181 174 223 208 208 203 199 181
349 345 349 339 333 340 332 324 314 281 213 206 189 118 134 97 174 193 191 190 179 181 182 178 175 178 179 182 186 188 188 183 180 180 150 150 200 131 182 220 202 188 181
351 349 343 334 331 323 321 328 316 307 246 197 192 193 198 185 192 187 199 190 185 179 177 176 178 181 176 180 185 187 190 187 181 187 200 150 143 166 180 196 218 187 178
355 349 346 337 326 325 325 332 320 302 284 209 199 190 194 202 188 183 179 188 174 173 168 171 174 181 174 177 182 189 194 201 191 193 163 159 156 151 140 173 157 132 182
356 350 348 341 332 326 323 345 323 317 308 222 204 200 199 182 164 175 181 179 175 174 172 169 172 173 180 176 182 193 194 196 213 206 191 198 182 186 163 149 177 182 153
1 354 352 345 336 329 329 346 329 318 313 238 209 202 202 183 184 178 180 173 172 176 179 166 168 175 182 180 177 188 194 194 203 206 195 209 212 186 196 140 159 172 141
359 356 350 342 332 328 324 341 339 318 316 250 214 201 194 181 172 171 173 183 187 176 165 162 166 160 167 172 181 178 207 206 207 214 207 200 209 205 191 171 161 133 153
342 354 349 345 331 331 333 343 326 327 323 234 210 179 165 166 168 169 169 170 178 154 156 148 150 156 163 167 175 198 202 209 213 215 213 216 214 206 206 203 190 178 181
346 354 349 341 337 336 338 337 339 337 321 333 166 167 166 159 157 157 163 162 158 155 149 145 141 142 159 167 186 181 188 203 207 212 208 215 213 199 196 188 192 185 181
356 344 345 342 339 342 344 338 335 330 332 338 321 144 141 142 147 154 154 155 140 156 149 151 136 149 156 153 163 180 201 214 238 247 232 227 221 205 196 193 180 183 170
0 350 346 342 345 346 348 346 345 340 342 331 317 187 132 132 155 148 148 158 130 160 148 145 144 148 159 164 178 200 208 234 249 246 237 238 233 211 197 192 193 187 189
6 351 349 352 348 348 349 349 348 348 345 349 344 251 167 153 159 158 142 151 153 144 143 139 150 152 156 176 176 197 220 236 245 247 241 238 225 213 203 191 192 189 181
9 352 353 352 350 353 351 353 353 353 352 1 10 17 5 355 192 174 135 153 154 132 133 136 135 141 149 145 161 194 204 238 288 355 328 287 245 232 208 195 187 178 175
8 357 356 355 355 355 354 356 358 359 1 20 25 20 11 11 28 59 118 116 106 99 96 96 81 80 85 65 88 254 162 116 65 45 38 23 11 28 163 174 186 177 177
5 357 358 358 359 359 359 356 1 1 5 22 29 32 30 24 26 23 62 61 68 64 71 67 70 61 47 352 218 205 88 75 64 54 41 35 26 49 70 71 60 53 179
4 3 0 357 358 -0 359 2 3 5 13 27 30 36 41 37 30 30 44 60 64 63 62 59 57 45 35 28 61 96 87 81 66 58 52 47 33 37 53 65 60 52 45
9 3 358 359 2 2 4 5 14 16 22 27 31 31 39 56 54 38 34 55 58 60 58 52 52 53 38 39 52 82 87 79 65 60 60 63 50 42 64 64 68 59 51
13 3 3 6 8 10 4 11 20 21 27 27 27 31 26 41 60 53 31 52 64 60 54 50 50 48 42 40 47 73 82 80 70 61 60 63 66 68 77 81 79 70 57
22 13 6 20 22 14 8 19 24 25 24 20 21 33 35 39 55 52 44 49 59 65 62 58 52 52 45 41 46 66 75 80 75 68 62 66 74 73 75 79 85 81 55
23 14 20 27 27 17 17 25 22 28 18 20 27 32 34 42 44 50 41 49 51 63 56 58 50 49 52 51 49 60 60 72 78 70 64 67 75 76 77 76 73 81 83
27 19 27 28 21 26 28 29 25 13 21 31 35 36 37 38 39 46 46 46 55 59 55 57 60 47 46 54 57 62 67 66 74 66 65 70 75 76 75 73 77 74 72
31 21 23 31 24 22 26 37 21 17 25 39 39 40 38 37 36 47 47 44 46 55 54 53 50 53 43 44 53 59 62 62 71 72 74 68 64 63 63 66 64 59 62
36 28 40 38 34 21 21 26 17 18 30 40 41 38 47 45 43 44 47 54 41 45 50 48 51 53 48 45 38 43 47 53 61 61 61 67 68 65 65 61 54 54 55
35 39 37 34 27 21 21 15 13 22 39 42 44 41 39 42 55 51 46 49 54 55 53 48 53 57 62 61 65 63 57 55 54 64 59 55 52 56 56 55 52 52 55
30 31 31 29 20 22 21 14 16 27 41 48 42 41 46 37 44 45 47 45 51 58 61 59 59 52 63 63 62 60 61 64 65 61 62 59 55 59 60 61 56 45 45